TimeMST,TemperatureF,Dew PointF,Humidity,Sea Level PressureIn,VisibilityMPH,Wind Direction,Wind SpeedMPH,Gust SpeedMPH,PrecipitationIn,Events,Conditions,WindDirDegrees,DateUTC
12:53 AM,16.0,9.0,74,30.42,10.0,WNW,6.9,-,N/A,,Overcast,290,2013-01-03 07:53:00
1:53 AM,12.9,7.0,77,30.43,10.0,NW,4.6,-,N/A,,Clear,320,2013-01-03 08:53:00
2:53 AM,8.1,3.9,83,30.45,10.0,WNW,8.1,-,N/A,,Clear,290,2013-01-03 09:53:00
3:53 AM,7.0,3.0,84,30.43,10.0,WNW,8.1,-,N/A,,Clear,300,2013-01-03 10:53:00
4:53 AM,3.0,1.0,91,30.44,10.0,South,3.5,-,N/A,,Clear,190,2013-01-03 11:53:00
5:53 AM,1.9,-0.9,88,30.44,10.0,WNW,5.8,-,N/A,,Clear,290,2013-01-03 12:53:00
6:53 AM,3.0,-0.9,84,30.45,10.0,WNW,5.8,-,N/A,,Clear,300,2013-01-03 13:53:00
7:53 AM,6.1,-0.0,76,30.45,10.0,NW,10.4,-,N/A,,Clear,310,2013-01-03 14:53:00
8:53 AM,10.0,1.9,70,30.45,10.0,NW,9.2,-,N/A,,Clear,310,2013-01-03 15:53:00
9:53 AM,17.1,5.0,59,30.42,10.0,WNW,11.5,-,N/A,,Clear,300,2013-01-03 16:53:00
10:53 AM,23.0,7.0,50,30.38,10.0,WNW,6.9,-,N/A,,Clear,290,2013-01-03 17:53:00
11:53 AM,28.9,10.9,47,30.32,10.0,WNW,8.1,-,N/A,,Clear,300,2013-01-03 18:53:00
12:53 PM,33.1,12.0,42,30.29,10.0,WNW,8.1,-,N/A,,Clear,300,2013-01-03 19:53:00
1:53 PM,36.0,12.9,39,30.28,10.0,WNW,8.1,-,N/A,,Clear,300,2013-01-03 20:53:00
2:53 PM,37.0,12.9,37,30.30,10.0,NW,8.1,-,N/A,,Clear,310,2013-01-03 21:53:00
3:53 PM,36.0,12.9,39,30.30,10.0,West,5.8,-,N/A,,Clear,270,2013-01-03 22:53:00
4:53 PM,28.0,12.9,53,30.34,10.0,West,9.2,-,N/A,,Clear,260,2013-01-03 23:53:00
5:53 PM,25.0,9.0,51,30.36,10.0,West,8.1,-,N/A,,Clear,270,2013-01-04 00:53:00
6:53 PM,23.0,7.0,50,30.37,10.0,WNW,8.1,-,N/A,,Clear,290,2013-01-04 01:53:00
7:53 PM,21.0,7.0,55,30.37,10.0,NW,6.9,-,N/A,,Clear,310,2013-01-04 02:53:00
8:53 PM,18.0,6.1,60,30.36,10.0,NW,5.8,-,N/A,,Clear,320,2013-01-04 03:53:00
9:53 PM,18.0,6.1,60,30.34,10.0,WNW,4.6,-,N/A,,Clear,300,2013-01-04 04:53:00
10:53 PM,18.0,5.0,57,30.33,10.0,NW,5.8,-,N/A,,Clear,310,2013-01-04 05:53:00
11:53 PM,14.0,3.9,64,30.31,10.0,WNW,5.8,-,N/A,,Clear,290,2013-01-04 06:53:00